Regional Weather Roundup
Issued by NWS

Home | Current Version | Previous Version | Text Only | Print | Product List | Glossary Off
Versions: 1 2 3 4 5 6 7 8 9 10 11 12 13 14 15 16 17 18 19 20 21 22 23 24 25 26 27

000
ASUS45 KCYS 240510
RWRWY

WYOMING REGIONAL WEATHER ROUNDUP
NATIONAL WEATHER SERVICE CHEYENNE WY
1100 PM MDT WED APR 23 2014

NOTE:  "FAIR" INDICATES FEW OR NO CLOUDS BELOW 12,000 FEET
WITH NO SIGNIFICANT WEATHER AND/OR OBSTRUCTIONS TO VISIBILITY.

WYZ001-240600-
YELLOWSTONE NATIONAL PARK

CITY           SKY/WX    TMP DP  RH WIND       PRES   REMARKS
LK YELLOWSTONE   N/A     26  19  74 VRB7      29.97R WCI  18
W YELLOWSTONE  NOT AVBL

$$
WYZ002>013-054>058-071-098>099-240600-
NORTHERN WYOMING

CITY           SKY/WX    TMP DP  RH WIND       PRES   REMARKS
JACKSON        CLOUDY    34  23  64 S15G21    30.00S WCI  24
CODY           PTCLDY    39  21  48 W16G28    29.87R WCI  30
GREYBULL       CLEAR     41  19  41 CALM      29.88R
WORLAND        CLEAR     36  15  42 VRB3      29.88R
SHERIDAN         N/A     30   9  40 W8          N/A  WCI  23
BUFFALO        CLEAR     40  11  30 NE5       29.87S
GILLETTE       PTCLDY    33  22  63 W8        29.85R WCI  26
HULETT         FAIR      39  23  52 SW8       29.83  WCI  34
NEWCASTLE      FAIR      37  28  70 CALM      29.85

$$
WYZ014>020-022>026-101>103-240600-
CENTRAL WYOMING

CITY           SKY/WX    TMP DP  RH WIND       PRES   REMARKS
BIG PINEY      MOCLDY    28  15  58 CALM      30.04R
PINEDALE       PTCLDY    27  21  80 CALM      30.05R
DUBOIS         FAIR      30  18  59 NW21G29   29.93R WCI  17
LANDER         PTCLDY    38  15  39 SW8       29.94S WCI  32
RIVERTON       PTCLDY    35  10  35 NW8       29.95S WCI  29
CASPER         CLEAR     37  15  40 W10       29.92R WCI  30
DOUGLAS        MOCLDY    40  31  70 NW6       29.92R

$$
WYZ021-027>030-104>119-240600-
SOUTHERN WYOMING

CITY           SKY/WX    TMP DP  RH WIND       PRES   REMARKS
EVANSTON       CLEAR     27  15  61 SW10      30.08S WCI  17
KEMMERER       CLEAR     27  19  74 W3        30.06S
FORT BRIDGER   FAIR      31  19  59 W9        30.10S WCI  23
ROCK SPRINGS   CLEAR     33  14  45 W12       30.05S WCI  24
DIXON          FAIR      32  13  46 CALM      30.08R
RAWLINS        CLEAR     35   9  33 W22G31    30.00R WCI  23
SARATOGA       FAIR      28  10  47 W10       30.02R WCI  19
LARAMIE        MOCLDY    33   5  30 NW21G31   29.96R WCI  21
CHEYENNE       CLOUDY    43   5  20 NW18G33   29.92R
TORRINGTON     CLOUDY    44  34  67 N6        29.85R
PINE BLUFFS    FAIR      46   9  21 NW23G33   29.88R

$$



USA.gov is the U.S. government's official web portal to all federal, state and local government web resources and services.